Location: Newark
(40.7060°N, 73.9980°W)
Time: 16:50:54
(UTC+00:00)

N. Korean satellite - Pass Details

Date: 23 November 2019
Orbit: 455 x 506 km, 97.2° (Epoch: 12 December)

Event Time Altitude Azimuth Distance (km) Brightness Sun altitude
Rises 22:51:53 0° 201° (SSW) 2,566 10.8 -14.9°
Reaches altitude 10° 22:54:24 10° 220° (SW) 1,697 10.1 -15.3°
Maximum altitude 22:57:03 19° 266° (W) 1,248 9.7 -15.8°
Drops below altitude 10° 22:59:45 10° 313° (NW) 1,721 9.8 -16.3°
Sets 23:02:20 0° 332° (NNW) 2,616 10.5 -16.8°
